Location: Unspecified
(0.0000°N, 0.0000°E)
Time: 02:06:20
(UTC+00:00)

N. Korean satellite - Pass Details

Date: 09 July 2020
Orbit: 454 x 506 km, 97.2° (Epoch: 08 July)

Event Time Altitude Azimuth Distance (km) Brightness Sun altitude
Rises 04:58:17 0° 21° (NNE) 2,450 10.8 -15.5°
Reaches altitude 10° 05:00:22 10° 28° (NNE) 1,581 9.9 -15.0°
Maximum altitude 05:03:37 44° 101° (E) 637 7.6 -14.2°
Drops below altitude 10° 05:06:53 10° 174° (S) 1,597 9.0 -13.5°
Sets 05:08:59 0° 181° (S) 2,479 9.9 -13.0°
